ECMWFFLT2_sfc_temp_024.txt.gz
Temp
75 77 77 76 76 75 75 74 74 74 74 74 74 74 74 75 75 74 75 74 74 75 74 74 75 75 74 75 73 74 74 74 74 74 74 73 73 73 73 73 73 73 72 73 73 73 72 73 73 73 73 74 73 73 76 79 79 78 77 76 74 74
75 76 75 76 76 75 75 75 75 75 75 74 75 75 75 75 75 74 74 74 73 74 75 75 75 76 74 74 74 74 74 74 74 74 73 73 73 73 73 73 72 72 72 72 73 72 72 73 73 73 73 73 72 74 76 77 76 78 76 74 73 73
74 73 74 74 76 76 75 76 76 76 75 75 76 76 76 75 72 75 74 72 71 73 75 75 75 77 76 75 74 74 74 74 74 74 73 73 73 73 73 73 73 73 72 72 72 72 74 74 72 73 73 72 73 75 77 77 76 75 75 74 73 74
72 73 72 73 75 74 75 75 76 76 75 75 75 77 76 70 72 72 72 71 70 72 74 73 77 78 77 74 73 74 74 73 74 73 73 73 73 73 73 73 73 73 72 73 73 74 78 77 74 72 72 73 74 77 78 76 77 76 75 76 74 74
73 71 73 73 74 74 75 75 75 75 76 76 76 76 72 68 69 71 70 69 71 72 72 73 73 74 72 73 73 73 73 73 73 73 73 73 72 73 72 73 73 72 72 74 75 76 77 75 76 74 74 75 76 75 75 71 72 75 74 72 71 73
73 72 73 74 74 75 75 74 74 75 75 75 75 74 70 69 69 70 69 69 70 70 71 71 71 71 71 70 70 69 70 70 72 73 73 70 69 71 72 73 73 74 73 75 76 75 76 73 74 77 76 75 72 71 72 72 73 73 73 71 71 73
72 72 74 75 74 75 75 74 75 74 74 74 73 73 71 70 70 70 69 70 69 69 70 71 71 71 70 69 69 69 69 70 71 70 71 70 71 72 72 71 71 71 71 73 76 77 77 74 72 71 69 68 67 69 69 69 71 74 73 72 72 73
74 74 73 75 75 75 75 74 74 74 74 75 73 73 71 71 71 70 70 70 71 70 70 71 71 70 70 70 69 70 71 71 70 71 70 70 69 69 69 69 69 69 69 71 73 77 78 70 70 71 70 70 71 71 69 70 70 74 73 72 72 72
75 77 73 74 74 75 74 74 73 72 73 74 74 73 72 72 71 71 71 72 73 70 72 72 71 71 71 69 70 70 69 71 71 72 71 70 70 69 68 68 68 67 68 69 72 75 77 76 68 70 70 71 71 71 70 70 69 74 74 72 71 71
76 76 73 74 74 74 72 72 72 72 73 74 73 73 73 72 72 72 71 73 74 73 71 72 72 73 71 67 68 70 70 71 72 72 71 70 70 69 68 68 68 67 69 70 70 75 75 72 73 69 72 73 71 70 70 71 70 70 73 72 71 70
75 73 75 73 72 73 74 72 74 73 74 74 74 74 75 74 74 73 72 74 75 74 73 71 71 69 69 69 68 69 69 72 73 72 72 71 71 69 68 69 68 67 67 68 70 74 74 68 68 69 73 72 70 71 70 70 70 70 71 71 71 70
73 72 72 73 72 74 75 74 75 73 74 74 75 75 75 75 73 72 72 73 72 73 73 71 72 70 68 68 68 68 69 70 71 72 72 71 71 70 69 69 69 69 69 70 72 73 71 66 65 67 70 72 73 73 72 72 72 70 69 70 71 71
72 70 71 72 72 75 75 76 73 72 73 74 75 75 74 74 72 71 71 72 73 71 70 72 72 72 71 66 68 68 69 70 71 73 72 72 72 70 69 68 67 68 69 71 73 70 69 66 64 64 69 74 73 75 76 73 70 70 68 68 70 72
72 70 69 71 72 75 76 75 72 73 74 74 74 73 72 73 72 71 72 72 72 71 70 71 73 71 71 70 69 68 69 70 71 72 72 71 70 70 68 68 68 68 69 69 72 70 65 65 66 66 66 69 71 70 72 71 70 69 67 68 69 71
76 74 71 70 73 75 75 75 74 74 73 72 71 71 72 73 72 71 71 70 71 70 70 71 72 71 72 68 68 68 69 69 71 72 72 71 71 70 68 68 68 68 68 67 68 71 68 65 66 66 67 69 70 73 72 69 66 67 68 70 70 68
74 74 73 72 73 73 72 71 72 72 71 71 70 71 70 71 71 71 69 70 72 71 68 71 70 71 70 68 68 68 68 67 69 72 72 71 71 70 67 67 68 69 68 67 66 65 65 64 64 66 68 68 69 70 69 70 70 67 68 69 69 66
72 72 72 72 72 71 70 70 70 71 71 70 69 69 70 71 72 72 70 69 71 70 70 70 71 71 70 70 69 69 69 69 68 70 70 71 71 70 68 68 67 69 69 66 65 65 65 64 65 67 66 66 68 68 68 69 71 72 73 72 71 68
71 71 71 71 70 69 69 69 69 70 71 72 72 73 73 75 73 75 74 72 73 72 72 70 71 71 70 71 69 69 68 68 68 69 69 70 70 70 69 68 67 68 68 65 64 65 64 63 65 66 65 66 67 67 68 69 71 72 71 70 72 68
69 69 69 69 68 68 68 68 68 70 70 72 73 74 74 75 75 75 75 75 76 74 72 72 71 71 69 70 69 67 67 68 67 68 69 68 70 70 68 67 67 67 68 66 64 65 64 63 67 68 68 67 67 67 67 69 70 70 71 72 72 69
68 69 68 68 67 66 67 66 67 69 71 72 76 77 77 78 77 76 77 76 76 74 73 71 71 71 71 69 68 67 67 69 65 66 67 67 68 68 67 66 66 66 66 66 65 64 66 65 66 65 64 66 66 67 71 70 70 71 71 71 71 66
66 68 67 66 66 65 66 64 68 69 73 77 78 77 78 77 77 76 77 78 76 75 72 72 72 72 70 69 69 68 67 68 69 67 65 67 68 68 68 67 65 65 65 64 64 66 66 66 65 63 65 64 65 66 69 69 68 67 70 71 71 69
66 66 66 67 65 67 68 68 68 74 77 77 78 77 75 75 76 77 76 76 76 75 74 73 73 72 72 70 68 68 68 67 67 66 66 68 69 68 68 66 66 64 65 63 64 66 65 66 62 62 61 62 64 66 66 67 68 72 71 72 71 70
63 64 65 67 68 67 71 68 74 75 76 76 78 77 79 78 78 77 75 76 75 75 73 73 73 73 71 70 68 69 67 67 68 67 67 68 68 68 67 66 65 63 62 64 63 64 65 65 63 64 63 61 60 59 63 64 67 70 70 71 71 73
64 65 65 65 66 72 74 76 75 74 74 75 74 75 75 76 77 78 76 77 76 75 73 72 71 72 71 69 69 68 67 67 67 68 68 67 67 67 67 65 64 64 64 61 63 62 65 66 65 64 58 59 60 60 56 58 62 67 71 71 72 73
64 64 64 64 64 65 74 74 75 74 75 74 74 74 74 73 75 75 76 75 75 76 76 76 73 74 75 71 71 70 69 68 68 69 68 67 67 68 67 67 65 65 64 62 60 62 63 65 66 65 63 61 57 56 59 60 62 64 68 70 73 74
65 65 65 65 65 66 73 72 71 70 69 70 70 71 70 70 72 73 75 75 77 78 77 75 76 75 73 71 70 70 70 70 69 67 67 67 67 68 69 69 68 66 64 64 62 61 61 64 64 66 66 66 64 60 60 62 62 56 66 68 71 76
65 65 66 66 66 67 72 72 72 73 73 71 69 70 72 73 72 73 74 73 75 75 77 75 75 75 74 74 73 71 70 70 70 68 68 67 67 68 70 71 70 65 65 65 64 61 62 62 63 64 67 67 67 67 67 62 58 61 58 63 68 68
66 66 67 67 68 70 72 71 71 71 72 71 70 70 71 71 73 73 73 73 73 73 76 76 75 75 75 75 74 74 73 72 72 71 70 69 68 70 70 71 71 69 67 65 66 65 64 63 62 63 64 65 65 68 67 66 65 62 61 58 60 67
67 67 67 68 70 72 72 72 71 71 70 72 72 72 72 73 72 72 72 72 72 75 74 74 75 74 74 75 74 73 74 73 72 73 75 74 72 74 72 70 69 69 69 69 69 66 65 64 66 63 63 63 66 65 65 66 65 63 61 60 59 60
69 70 70 70 72 73 72 72 72 71 71 70 72 72 72 71 71 72 70 71 71 71 72 72 73 74 75 76 75 75 74 73 72 73 73 74 73 72 71 71 70 70 70 69 68 68 65 66 66 66 66 64 62 64 63 61 61 61 63 65 60 61
70 72 72 72 73 72 73 73 72 72 71 71 71 71 69 70 70 71 70 70 70 71 72 71 72 72 72 74 72 73 73 73 72 72 72 73 71 71 69 69 71 71 70 69 68 68 68 69 67 66 66 63 63 64 61 59 60 61 62 61 62 61
70 71 72 73 73 73 73 72 72 72 72 71 72 71 70 70 71 71 70 70 70 70 71 71 71 70 71 72 72 72 72 72 71 71 72 72 72 71 70 70 70 70 70 69 70 69 68 67 67 65 66 66 66 65 64 64 65 64 63 63 63 62
68 70 72 72 72 72 72 72 72 72 72 71 72 72 71 70 72 70 70 70 70 69 70 70 70 70 70 72 71 71 71 71 70 70 71 71 71 72 71 69 69 69 69 68 67 67 66 66 68 66 66 67 69 69 67 68 69 68 67 67 65 62
68 70 71 72 72 72 72 72 72 72 71 71 71 71 71 71 72 71 71 70 71 70 70 70 70 69 71 73 71 71 71 71 71 71 71 71 71 71 71 69 68 68 68 68 68 67 67 67 68 69 68 66 67 67 67 68 67 69 67 67 65 63
68 69 70 70 71 72 72 72 72 72 72 72 71 71 72 72 72 71 71 71 71 71 70 70 70 70 71 71 71 71 71 70 71 70 71 71 72 70 69 71 71 69 69 69 69 68 67 67 67 68 67 66 66 66 66 66 66 67 70 66 68 65
68 69 69 70 71 71 72 72 72 72 72 72 72 72 71 71 71 71 71 71 71 70 70 69 70 70 71 70 70 70 71 70 71 71 71 72 71 70 69 68 68 68 68 72 67 67 66 66 66 66 66 67 66 66 67 68 69 67 67 69 67 67
68 68 69 70 70 71 71 71 71 72 72 71 72 71 70 70 70 71 71 71 70 70 69 69 69 70 69 70 70 69 69 69 70 70 70 70 70 69 69 68 68 67 66 67 67 67 66 65 66 66 66 66 66 66 66 67 67 67 67 67 68 66

ECMWFFLT2_sfc_temp_027.txt.gz
Temp
72 73 72 72 72 72 74 74 74 74 74 74 74 74 74 74 74 74 74 74 73 72 72 73 72 72 74 72 73 74 74 74 74 74 74 73 73 73 73 73 73 72 72 73 73 73 72 72 73 73 73 73 74 69 70 72 72 72 71 71 71 72
71 72 72 72 72 72 73 73 72 72 73 73 74 75 73 72 74 72 74 72 72 72 71 71 72 74 72 73 73 74 74 74 74 74 73 73 73 73 73 73 72 72 72 72 72 68 68 72 73 73 73 73 70 68 70 72 72 71 70 70 70 72
71 71 72 72 72 72 71 71 71 72 73 74 74 73 71 72 70 71 70 70 70 71 71 71 71 73 72 73 73 74 74 74 73 73 73 73 73 73 73 73 72 72 72 72 68 66 66 67 67 73 73 70 67 69 71 71 71 70 70 70 70 74
71 71 70 70 71 70 70 70 70 71 70 71 71 71 69 68 69 69 69 69 68 70 70 71 77 78 75 71 72 73 74 73 73 73 73 72 73 72 73 73 73 73 71 70 66 67 68 68 67 67 67 67 69 71 71 71 71 70 70 73 72 74
70 70 70 70 70 70 70 70 70 70 70 69 68 67 67 67 67 68 68 67 68 69 68 69 69 69 69 69 68 68 69 69 68 67 72 66 67 69 69 67 67 68 66 67 68 67 69 69 68 68 67 68 68 68 70 69 70 69 68 69 70 74
70 70 70 70 70 72 72 70 70 70 69 69 68 66 66 66 67 67 67 68 68 67 68 68 68 67 67 67 67 66 66 67 67 67 69 65 66 66 66 66 67 68 67 67 68 69 69 67 66 65 65 65 67 68 68 68 69 68 67 67 71 73
69 69 71 71 70 71 69 69 70 70 69 67 67 66 65 66 67 67 67 68 66 66 66 66 67 66 65 66 66 66 65 65 66 66 68 66 67 67 66 66 66 66 66 67 68 69 68 67 67 66 65 66 65 67 67 66 67 67 67 67 71 73
70 71 70 72 71 69 67 68 70 72 70 70 68 67 66 66 67 67 67 67 68 66 66 65 66 65 65 66 66 66 65 65 65 66 67 67 65 65 65 65 66 66 66 67 68 69 67 68 67 67 64 64 66 65 66 67 67 67 67 67 69 72
71 71 69 69 69 69 68 69 70 69 68 72 68 67 67 67 66 66 67 68 68 66 66 66 66 66 66 66 65 65 65 65 66 66 67 65 65 64 65 65 65 65 65 66 67 67 68 66 65 65 64 65 66 67 66 67 67 68 67 66 68 70
71 70 69 68 69 70 69 69 68 68 68 70 68 68 68 67 67 67 66 68 68 67 67 66 66 66 65 64 64 65 66 66 66 66 66 66 65 65 65 65 65 65 65 65 67 69 66 65 66 66 66 65 66 67 66 66 67 67 67 67 67 69
70 71 71 70 68 69 69 68 69 68 69 69 69 68 68 67 67 67 67 68 69 69 68 67 66 65 65 64 64 64 64 65 66 67 67 67 67 66 65 65 65 64 65 66 67 67 66 64 65 66 66 67 66 66 67 67 67 68 67 66 67 67
70 70 71 70 70 70 70 69 69 69 69 69 69 68 68 68 68 67 68 67 68 68 68 66 66 65 65 64 64 63 64 65 66 67 67 67 66 66 66 66 65 66 65 67 67 65 64 64 64 65 66 67 67 66 68 68 68 68 67 66 66 67
70 70 70 70 71 70 70 71 69 69 69 71 69 69 69 68 67 67 67 67 67 67 67 67 66 66 66 63 64 63 64 65 66 67 67 68 67 66 66 65 64 66 66 67 65 64 65 64 63 63 65 66 65 66 69 68 66 65 65 65 65 67
69 69 69 70 71 71 71 70 69 68 70 70 68 68 68 68 67 67 67 67 67 67 66 67 66 65 65 63 64 63 63 65 66 67 67 67 66 65 65 64 64 65 66 65 63 63 63 64 63 63 63 65 64 67 66 65 65 64 64 64 64 65
68 68 69 69 70 70 69 69 69 69 69 69 69 68 68 67 67 67 67 66 67 66 66 66 67 65 64 64 63 63 64 65 65 66 66 66 66 65 65 65 64 64 63 62 63 64 63 63 62 63 64 64 64 66 64 64 64 65 64 64 65 65
67 67 68 69 69 70 69 68 68 70 67 68 68 68 67 67 67 67 67 67 67 67 66 66 66 66 63 64 63 63 65 64 65 65 66 66 66 64 63 65 65 65 62 61 62 62 63 62 62 63 64 64 65 65 63 63 64 65 65 64 65 65
66 67 68 69 68 68 68 68 68 68 67 67 67 67 67 67 67 67 66 66 67 66 66 66 66 66 65 64 64 64 64 64 64 64 65 66 65 64 64 65 64 65 64 61 62 62 63 62 62 63 63 62 64 64 64 64 63 64 65 64 63 64
67 68 67 68 67 67 67 67 66 67 68 68 68 68 68 69 68 67 67 66 67 66 67 66 66 66 66 66 65 64 64 64 64 64 65 66 65 65 64 65 64 63 64 63 61 61 61 61 62 63 62 63 64 63 64 64 64 65 63 64 63 64
66 66 66 67 66 66 66 65 66 67 67 67 68 68 69 68 69 68 68 68 69 68 67 66 66 67 65 65 64 63 64 63 64 64 64 65 65 65 64 64 64 63 63 63 62 62 62 61 64 64 64 63 63 64 64 64 63 62 63 64 64 66
65 66 66 65 65 64 64 65 65 66 67 67 68 68 69 69 69 69 69 69 69 68 68 67 67 67 66 65 63 63 63 63 63 62 63 64 64 64 64 64 63 62 62 62 63 63 62 63 63 62 61 62 63 64 65 64 64 64 63 64 65 64
64 65 65 64 64 63 63 63 65 67 67 68 69 68 69 69 69 69 71 70 68 67 67 67 67 67 66 67 64 63 64 63 63 62 62 62 64 64 64 64 63 63 62 60 60 62 63 63 62 60 61 61 63 63 66 64 63 64 64 64 64 63
64 64 64 64 63 64 65 65 65 67 66 66 69 68 66 68 69 70 69 67 67 67 67 67 67 67 66 65 64 63 64 63 63 62 62 63 65 65 64 63 63 61 61 61 60 62 63 63 59 58 58 58 59 61 63 62 63 65 64 66 65 63
64 64 63 64 64 64 65 64 65 66 68 67 68 69 70 69 70 70 69 68 67 67 67 67 67 67 67 66 64 64 63 62 63 63 62 62 64 63 63 63 62 61 59 59 60 62 62 61 58 59 59 57 56 55 60 61 62 64 66 66 66 65
63 63 63 64 65 65 66 66 66 68 69 70 69 69 69 69 69 70 69 70 68 68 67 67 68 67 67 65 64 63 64 63 63 64 63 63 63 62 62 61 61 61 62 59 58 59 62 62 60 60 57 54 55 53 53 57 59 63 64 65 67 68
62 62 63 65 65 65 66 66 68 68 70 69 68 67 66 65 67 68 69 67 67 67 67 67 67 67 67 66 65 64 64 64 63 64 64 63 63 63 62 61 61 61 60 59 57 57 59 62 61 62 57 56 55 52 52 55 56 59 63 65 65 68
63 63 64 64 65 65 67 66 66 68 66 65 63 63 63 63 64 66 66 66 69 68 67 66 67 67 67 66 65 65 65 65 64 63 63 63 64 64 63 62 62 62 60 59 59 57 57 60 60 61 61 61 57 54 55 58 55 54 61 63 65 68
64 64 65 65 65 66 67 67 68 69 68 66 65 63 63 64 65 65 67 66 67 67 68 67 66 66 66 66 66 66 65 65 65 63 64 64 63 64 64 65 64 62 61 61 60 57 58 59 59 60 62 61 62 62 59 58 54 56 54 58 61 62
65 65 66 65 65 67 68 68 69 68 67 67 66 65 65 64 65 66 65 66 66 65 68 67 66 66 66 66 65 65 65 65 64 64 64 63 63 64 66 66 64 64 63 63 62 60 58 59 58 58 60 60 61 62 61 60 59 56 55 54 56 61
66 66 66 66 66 67 68 69 69 69 67 67 67 65 65 66 64 65 63 63 65 66 66 67 68 67 66 66 66 65 64 64 65 65 65 65 63 64 64 64 63 62 61 62 62 61 60 59 60 58 60 60 61 60 60 60 60 60 55 54 54 56
66 66 66 66 67 68 69 70 69 68 67 65 65 64 65 64 63 63 63 63 63 64 64 64 64 65 66 67 66 65 66 65 64 65 65 66 64 64 64 64 64 63 62 61 62 62 61 60 61 60 60 60 60 59 59 59 60 59 60 61 56 56
66 66 65 66 68 68 69 70 69 68 67 66 65 65 64 63 62 62 64 63 62 62 63 64 65 64 64 65 64 64 64 65 66 67 66 66 64 65 64 63 64 65 64 63 62 61 61 62 61 61 62 60 60 60 58 57 58 57 57 56 55 55
65 65 65 67 68 69 69 68 68 68 67 67 66 66 65 64 64 64 63 63 62 62 63 63 64 63 63 63 64 64 64 64 63 63 63 64 65 65 65 64 63 64 64 63 63 63 62 61 62 61 62 61 60 61 59 59 59 59 59 58 58 56
64 65 65 66 68 68 67 67 68 68 67 67 67 66 66 64 64 64 63 63 63 62 62 63 62 64 64 64 62 63 64 64 63 63 64 64 64 65 65 65 64 63 63 63 62 63 62 61 61 61 59 60 61 61 61 60 61 60 60 60 59 56
65 65 65 65 66 66 66 67 68 67 67 67 66 66 65 65 65 64 64 63 63 63 62 63 63 62 62 63 64 65 64 63 63 62 63 63 63 64 64 64 64 63 63 62 62 62 61 61 61 60 61 60 62 61 60 61 61 61 60 59 57 58
64 64 65 65 65 65 64 65 66 66 66 66 66 65 65 65 65 65 64 64 63 63 63 63 62 63 64 63 63 64 63 62 63 63 64 64 65 62 62 64 64 63 62 62 62 61 60 60 61 61 59 59 60 59 59 60 59 61 63 62 60 59
64 64 64 64 64 64 63 65 65 65 65 66 66 65 63 64 64 64 64 64 63 63 63 62 63 63 63 64 63 63 63 64 63 62 62 63 63 62 62 62 61 62 62 65 62 61 60 61 61 60 59 59 62 61 61 62 63 60 61 64 64 60
63 63 64 63 63 63 64 64 64 64 64 64 64 64 64 64 64 63 64 64 63 63 63 63 64 63 62 60 61 61 62 61 62 63 63 63 62 62 61 61 61 59 60 60 61 61 60 60 57 58 59 60 59 60 60 61 62 61 62 63 62 61

ECMWFFLT2_sfc_temp_030.txt.gz
Temp
71 71 71 71 71 72 74 74 74 74 74 74 74 74 74 74 74 74 73 73 72 71 70 71 71 71 74 72 73 73 73 74 73 73 73 73 73 73 73 72 72 72 72 72 72 72 72 72 72 72 73 72 72 69 68 68 68 68 67 68 69 69
70 70 71 71 72 72 73 73 71 72 72 73 74 74 73 72 74 71 73 71 70 71 69 70 71 73 71 73 72 73 73 73 73 73 72 72 72 72 72 72 72 71 71 71 72 66 65 69 71 72 73 71 68 67 68 68 67 67 67 68 68 71
70 70 70 71 71 71 71 70 70 70 72 73 73 72 71 71 69 69 69 70 70 69 70 70 71 72 71 72 72 73 73 73 73 73 73 73 72 72 72 72 72 72 71 71 65 63 63 64 64 71 70 68 67 67 67 67 67 67 67 68 67 74
70 70 70 70 70 69 69 69 69 69 69 69 69 69 69 68 68 68 68 67 67 69 69 69 74 75 74 70 71 73 73 73 73 73 73 70 72 72 72 72 72 71 66 65 63 63 65 63 64 65 66 66 66 67 67 67 66 67 67 71 68 74
70 69 69 69 69 68 69 68 68 68 68 67 66 66 66 66 67 67 67 67 68 68 67 67 67 68 67 67 67 67 68 67 65 65 69 64 65 66 65 64 65 65 63 65 65 64 65 64 65 65 64 65 66 66 66 66 66 66 67 67 68 73
69 69 69 69 68 70 69 67 67 68 67 65 65 65 65 66 66 67 67 67 67 66 66 66 67 66 66 66 66 65 65 65 64 65 66 63 63 64 64 64 65 65 64 64 65 65 65 64 64 64 64 64 65 65 65 65 65 65 66 67 70 73
68 69 69 70 69 69 67 67 67 67 66 64 64 64 65 65 66 66 67 67 66 65 65 65 65 65 64 65 65 64 64 65 64 64 65 64 64 64 64 64 64 64 63 64 65 65 64 64 64 64 63 64 64 65 64 64 65 65 65 67 71 73
69 69 68 70 69 68 67 67 68 69 66 67 65 64 64 65 66 66 66 66 67 65 65 64 64 64 64 64 64 64 64 64 64 64 65 65 64 63 64 63 63 63 64 64 65 65 64 65 63 64 64 63 64 65 64 64 65 65 65 66 68 72
70 69 69 69 68 67 67 68 68 66 66 69 64 64 65 65 65 65 65 67 67 65 64 65 64 64 64 64 64 63 63 63 63 63 63 63 64 64 64 64 63 64 62 63 64 64 64 63 62 62 63 64 65 65 64 64 65 65 65 65 66 70
70 69 68 68 67 67 67 67 67 67 67 68 65 65 66 65 65 65 65 66 67 66 65 64 64 63 64 63 63 64 64 63 63 63 63 63 63 64 64 64 63 62 64 64 64 65 63 63 63 63 63 64 64 65 64 64 65 65 65 66 66 69
69 69 69 68 67 67 67 67 67 67 67 66 66 66 65 65 65 65 65 66 66 66 66 65 64 63 63 63 63 63 63 63 63 63 63 63 63 63 63 64 63 62 63 63 64 64 63 63 63 64 64 64 64 64 64 65 65 65 65 65 65 65
69 69 69 68 68 68 68 68 67 67 67 67 67 66 65 65 66 65 66 65 66 66 66 65 64 64 63 63 63 63 62 62 63 64 65 64 63 64 65 66 65 63 64 64 63 62 63 63 62 63 64 65 64 63 64 65 66 66 65 63 63 64
69 68 68 68 68 68 68 68 67 67 67 68 67 66 65 66 65 66 66 66 66 66 66 65 64 65 65 63 63 62 62 62 64 65 65 64 65 65 64 63 62 64 64 63 63 62 63 62 62 62 64 64 64 64 65 65 65 65 65 63 63 63
68 68 68 68 68 68 68 67 67 67 68 67 67 66 67 66 66 66 66 66 66 66 65 65 64 63 63 63 62 62 62 62 63 65 65 65 63 62 63 62 63 63 64 62 62 61 62 62 62 62 62 63 63 64 64 64 64 64 63 63 63 62
66 67 69 68 68 68 67 67 67 67 67 67 67 67 66 66 66 65 66 65 66 66 66 65 65 63 63 63 62 62 62 63 64 65 65 63 63 63 62 63 62 61 61 60 61 62 62 62 62 62 62 63 62 63 63 63 62 63 63 62 62 63
66 67 68 68 68 68 67 67 67 69 67 67 67 66 66 65 65 65 65 65 65 66 65 65 64 64 62 62 62 62 62 62 64 65 65 63 63 63 62 62 62 62 60 60 61 60 61 62 62 62 62 62 62 62 62 62 63 62 62 62 62 62
66 67 66 66 67 67 67 67 67 68 67 67 66 66 65 65 66 66 65 65 65 66 65 65 65 64 63 62 61 62 62 63 63 64 64 63 62 63 63 63 62 62 61 59 60 60 61 61 62 62 62 62 61 61 60 61 61 61 63 61 61 62
66 66 65 65 66 67 67 67 67 66 67 66 66 66 66 66 66 65 65 65 65 65 65 65 65 64 63 64 63 63 63 63 63 64 64 63 63 62 62 63 61 61 61 61 59 60 60 61 63 62 62 62 62 61 61 60 61 64 61 61 61 62
66 66 66 66 65 65 66 65 65 65 65 65 64 65 66 65 65 65 64 64 64 64 65 64 65 65 64 64 63 63 62 61 63 63 63 63 62 62 62 61 62 61 61 60 60 60 61 62 63 63 63 62 62 61 60 62 61 60 61 61 62 63
66 66 65 65 65 64 65 64 64 63 64 64 64 65 64 65 65 65 65 65 65 64 65 64 64 64 64 63 62 62 62 62 62 63 63 62 61 61 61 61 60 61 61 61 61 60 61 62 61 61 62 62 62 61 60 61 60 60 60 61 62 62
65 65 65 64 64 64 63 62 63 64 64 64 64 64 65 65 66 65 66 66 66 65 64 64 65 64 63 65 62 62 62 61 62 63 62 62 62 62 62 61 60 61 60 60 59 60 61 62 61 59 60 60 60 61 63 62 60 61 60 61 61 61
64 64 65 65 64 64 64 64 64 64 63 64 64 64 63 64 65 66 65 65 65 65 64 64 65 64 64 63 62 62 62 61 61 61 62 62 62 63 62 61 61 59 58 59 58 60 62 60 58 57 57 57 57 59 60 60 60 62 61 61 60 60
63 64 64 65 64 64 65 65 65 64 65 63 66 65 65 65 66 65 64 65 65 65 65 65 65 65 64 63 62 62 62 61 61 63 62 62 62 61 61 61 60 60 58 58 59 60 60 58 58 57 57 56 53 53 57 57 59 60 62 62 61 60
63 64 64 65 65 65 66 65 65 66 66 66 64 64 65 65 65 65 64 65 65 65 65 65 65 65 64 63 62 62 62 61 61 62 61 62 62 61 60 59 59 60 61 58 54 58 59 60 58 60 56 53 53 52 50 54 56 59 60 62 61 61
63 63 64 65 65 65 66 64 64 65 66 64 64 63 63 62 63 64 64 63 64 64 65 65 64 64 64 63 62 62 62 62 61 61 62 62 61 61 61 60 59 60 60 59 55 55 58 60 59 59 57 54 53 52 49 53 53 56 58 60 61 63
62 62 63 64 65 65 66 65 65 65 63 62 61 61 60 62 61 62 62 61 63 64 64 63 63 64 64 63 62 62 62 62 62 62 62 62 62 61 60 60 60 60 58 58 59 56 56 58 59 60 57 55 54 53 54 55 52 52 58 58 60 64
62 63 64 64 65 67 66 66 67 67 66 64 63 62 63 62 62 62 63 63 63 62 63 64 62 63 63 63 62 62 62 62 63 62 63 62 62 61 62 62 61 59 59 59 59 57 58 57 58 58 58 59 60 58 60 57 52 53 53 56 58 58
63 64 64 65 66 68 67 67 67 67 66 65 65 63 62 62 61 63 62 62 62 61 62 62 63 62 63 63 62 61 61 61 62 62 63 62 62 62 62 62 61 60 60 60 59 59 57 57 59 57 58 58 58 59 58 57 58 56 54 53 54 59
63 63 64 65 66 67 68 67 67 66 64 64 65 64 62 62 61 61 60 60 61 61 62 62 62 62 61 63 63 62 61 61 60 61 63 62 61 63 62 62 60 59 60 59 58 58 59 58 58 57 57 56 58 58 58 58 57 55 53 54 52 55
62 62 63 64 65 65 65 66 65 65 65 63 63 62 62 61 60 60 61 60 60 60 60 60 61 61 60 61 61 62 62 62 61 61 62 61 61 62 61 62 61 60 59 59 58 59 59 58 59 59 58 58 57 56 58 58 56 56 57 56 55 56
62 62 63 63 64 63 64 65 66 66 65 63 63 62 62 61 60 60 61 59 60 61 61 62 61 60 61 61 60 61 60 59 60 63 63 62 61 62 61 61 61 60 60 59 59 58 58 58 59 59 58 58 59 60 58 56 57 56 54 53 53 53
62 62 62 63 63 63 65 65 65 65 65 65 64 64 63 61 61 62 61 60 59 60 60 60 60 60 60 61 61 60 60 60 61 61 61 62 62 62 62 61 61 61 60 59 59 60 59 59 58 59 58 58 58 58 57 59 59 58 57 56 56 54
62 62 63 63 63 64 65 65 65 65 64 64 64 64 63 62 62 62 60 59 59 59 59 60 59 61 59 60 61 61 60 60 60 60 61 61 61 62 62 62 62 61 60 60 60 60 59 59 59 59 58 56 58 58 58 59 59 57 57 56 57 53
63 62 62 62 63 63 64 64 65 65 64 64 63 63 62 62 60 60 60 60 59 59 59 60 59 60 58 60 60 61 60 59 59 59 61 61 61 61 61 61 60 60 59 59 60 59 58 57 57 57 58 57 57 57 56 58 58 58 57 56 54 56
62 61 61 62 62 63 63 64 64 64 64 64 65 64 63 61 60 60 59 60 59 58 59 58 58 58 59 59 58 59 60 60 60 60 59 60 61 60 60 61 61 60 59 59 59 59 57 58 58 57 56 56 57 56 55 57 58 60 60 59 58 56
62 61 61 61 60 62 62 63 63 63 63 63 64 63 62 61 60 60 60 60 59 59 59 58 58 58 59 59 59 59 59 58 58 59 59 59 59 60 59 60 59 59 59 61 58 56 55 56 56 55 55 55 57 57 56 57 59 60 61 60 58 56
62 61 62 61 60 60 61 62 62 62 61 61 62 61 61 59 59 59 60 59 60 59 59 60 60 58 58 58 58 57 58 58 59 58 58 58 58 58 59 60 59 58 58 57 58 57 55 57 55 56 56 56 56 56 56 56 59 61 60 58 58 55

ECMWFFLT2_sfc_temp_033.txt.gz
Temp
72 72 71 71 71 71 73 74 74 74 74 74 74 73 73 74 73 73 73 73 72 70 70 70 71 71 73 71 73 74 74 74 73 73 73 73 72 72 72 72 71 71 71 71 71 71 71 71 72 72 73 74 73 67 66 66 66 67 66 66 67 66
71 71 71 71 71 72 72 73 71 72 72 73 74 74 72 72 73 71 73 71 69 70 68 68 70 73 70 72 72 73 73 73 73 72 72 72 72 72 72 71 71 71 71 71 69 64 64 69 72 72 72 71 67 65 65 66 65 66 66 66 66 69
71 71 70 70 71 71 70 70 70 70 72 73 73 72 70 71 68 69 68 69 69 68 68 69 69 71 71 72 72 73 73 73 73 72 72 72 72 72 71 71 72 71 69 68 63 62 62 62 65 72 72 67 65 65 65 65 65 66 65 66 65 73
71 70 69 69 70 70 70 69 68 69 69 69 70 70 69 68 68 68 68 67 67 68 68 68 74 75 73 70 70 73 73 73 73 73 72 70 71 72 70 71 71 68 64 64 60 62 63 63 63 63 64 64 64 64 65 65 64 65 65 69 66 73
70 69 69 69 69 69 69 68 68 69 69 69 68 68 67 66 67 67 67 67 66 67 66 67 67 67 66 66 65 64 64 64 65 65 67 63 64 65 64 63 62 63 61 63 62 62 64 64 64 64 64 64 64 64 65 65 65 64 64 65 67 73
69 69 69 69 69 70 69 67 67 68 68 67 67 66 65 66 66 66 66 66 66 65 65 66 66 66 65 64 64 63 62 63 64 65 65 63 62 63 62 61 62 63 62 62 63 63 64 64 63 63 63 64 64 64 64 64 64 64 63 64 68 73
69 68 68 68 68 68 67 67 67 67 66 66 66 65 64 65 66 66 66 67 65 64 65 65 65 65 66 64 63 62 62 62 63 63 64 63 63 63 62 62 61 61 62 63 63 63 63 63 64 64 64 64 64 64 63 63 63 63 63 65 70 73
68 68 67 68 68 67 66 66 68 68 65 68 66 64 64 65 66 65 66 66 66 64 64 64 65 65 64 62 62 62 61 62 62 63 64 63 63 63 63 62 60 60 62 63 64 63 63 63 62 64 64 63 63 63 63 63 63 63 64 65 67 71
68 68 67 67 67 66 66 67 67 65 65 68 64 64 65 65 65 64 65 66 66 64 63 64 64 64 63 62 61 61 62 61 62 63 63 63 63 63 63 63 61 61 61 62 62 62 63 62 62 63 63 64 63 63 63 63 63 63 64 64 65 68
68 68 67 67 66 66 66 66 65 65 66 67 64 64 64 64 63 64 64 65 66 64 64 63 63 62 63 61 62 62 61 60 62 62 62 63 63 63 63 63 61 61 62 62 62 63 62 62 63 63 63 64 63 64 63 63 63 63 63 64 64 67
68 68 67 67 66 66 67 66 66 65 66 64 65 65 64 64 63 63 65 65 65 65 64 63 63 62 62 62 60 61 62 61 61 61 62 63 63 63 63 63 62 61 61 61 62 62 63 63 62 63 63 64 63 63 63 64 63 64 64 64 64 65
66 66 66 66 67 67 67 66 66 66 65 65 65 64 64 63 65 63 64 64 64 64 65 63 63 62 62 62 61 62 61 61 62 62 63 63 64 64 64 64 64 62 62 62 62 62 62 62 62 63 63 63 63 63 63 63 64 64 63 63 63 64
67 67 67 67 67 67 67 67 66 66 66 66 65 65 64 64 64 64 63 64 64 64 64 63 62 63 64 62 62 61 60 62 63 63 64 65 65 64 63 62 62 62 62 62 62 61 62 61 61 61 62 62 63 63 63 64 63 63 63 63 63 64
66 67 67 67 67 66 67 66 67 66 67 66 65 64 64 64 65 64 64 63 64 64 64 63 63 62 62 62 61 60 60 62 63 64 64 64 63 62 61 61 61 62 63 61 61 60 61 61 61 60 61 62 62 62 63 63 63 63 63 63 62 62
67 66 68 67 67 67 67 67 66 66 66 65 65 64 65 64 64 64 64 63 64 64 63 63 63 62 61 61 60 60 60 62 64 64 64 63 62 61 61 61 60 60 60 60 61 62 61 60 60 61 61 61 61 62 63 62 62 62 61 60 62 62
66 66 67 67 67 67 67 66 67 68 66 65 65 65 64 64 64 63 64 64 63 64 64 63 63 62 61 61 60 60 61 61 64 64 63 62 62 61 60 60 60 61 60 59 60 59 59 60 61 61 61 61 61 62 61 61 62 62 61 61 61 61
65 66 67 67 67 66 66 66 67 67 66 65 65 64 64 64 64 64 64 63 64 65 64 64 63 63 62 61 61 61 61 61 63 63 62 61 61 61 61 60 59 61 61 59 60 59 59 60 60 60 60 60 60 61 60 61 60 60 61 60 60 61
65 66 67 67 67 66 66 66 66 66 66 66 65 64 64 65 64 64 64 63 64 65 64 64 63 63 62 62 62 62 61 61 63 63 62 61 61 61 60 61 59 59 60 60 59 60 59 60 60 60 60 60 60 59 59 60 61 63 60 61 61 62
66 66 66 66 66 66 66 66 65 65 65 65 65 64 64 64 64 64 63 63 64 64 65 63 63 63 63 63 62 61 61 60 63 62 62 61 62 62 61 59 60 59 60 60 59 60 60 60 61 61 60 60 60 59 59 60 60 59 60 61 63 64
65 65 65 64 65 65 65 65 65 65 65 65 65 65 64 64 64 63 64 64 64 63 64 64 63 63 63 63 62 61 61 60 62 62 62 62 62 61 60 59 59 60 59 60 60 60 60 61 60 59 60 59 60 60 60 59 59 58 59 60 61 61
65 65 64 64 64 65 65 64 65 65 65 65 64 63 64 63 63 63 64 64 64 63 64 64 64 63 63 64 62 61 61 60 62 62 62 62 61 60 60 60 59 60 60 59 58 59 60 61 60 58 58 57 58 59 62 60 59 59 59 59 60 61
65 65 65 65 64 65 66 66 65 65 64 64 64 63 62 61 63 64 63 64 64 63 63 64 64 63 63 62 61 61 61 60 61 61 62 62 61 62 60 59 60 58 57 58 58 59 61 58 56 55 55 53 56 57 59 59 59 58 58 58 59 59
65 65 65 65 64 65 65 65 65 63 63 61 63 63 64 62 64 64 63 64 64 63 64 64 64 64 62 62 61 61 60 60 60 62 62 62 62 60 59 60 58 59 58 58 59 59 59 56 55 55 54 55 51 52 57 56 57 58 59 58 59 59
65 66 65 65 65 65 66 65 64 64 64 63 61 62 61 62 62 62 62 63 63 63 64 64 64 63 63 61 61 61 60 60 60 62 63 62 62 60 59 58 57 58 60 58 55 58 59 59 57 58 54 51 51 50 50 53 54 59 57 59 60 60
65 65 65 65 65 64 65 63 63 63 63 62 62 61 61 59 60 61 62 61 62 63 64 63 63 63 63 61 60 61 61 60 60 60 62 62 61 61 60 59 59 59 59 58 55 55 58 59 58 58 56 52 51 50 47 51 51 55 56 57 59 61
64 64 65 65 64 64 64 63 62 62 61 60 59 60 59 60 59 61 61 59 61 62 63 63 63 63 63 62 61 61 61 61 60 60 61 61 60 60 59 59 59 60 58 59 58 56 56 58 59 59 57 55 53 51 52 52 49 51 55 56 58 61
64 63 64 64 63 64 63 63 63 63 62 61 60 60 60 60 61 60 61 60 61 60 62 63 61 62 62 62 61 61 61 61 61 60 62 61 60 60 60 60 60 58 58 58 57 56 57 57 58 58 58 58 58 56 58 55 49 50 51 54 56 56
63 63 63 63 63 64 64 63 63 63 63 62 61 60 60 60 59 60 60 58 58 59 60 61 62 61 62 62 61 61 61 61 61 61 62 61 60 60 60 60 60 59 58 59 59 59 57 55 59 58 58 56 56 57 56 55 54 55 51 52 52 56
62 62 62 63 63 63 64 64 64 63 62 62 62 61 60 61 59 60 59 57 58 58 58 58 59 60 60 61 62 61 60 60 60 61 62 61 60 60 60 60 59 58 58 58 59 58 59 58 57 56 56 55 56 56 55 55 54 53 50 51 51 51
61 61 62 62 63 63 64 64 64 63 63 61 61 60 60 59 59 58 59 57 57 57 57 57 57 58 58 59 60 60 60 60 60 60 61 60 60 60 60 60 60 59 58 58 57 59 59 58 58 57 57 56 55 55 56 55 53 55 55 53 53 52
59 60 61 61 62 62 63 64 64 64 63 62 61 61 59 59 58 58 59 57 57 56 56 57 57 57 57 58 57 59 58 58 59 62 62 60 60 61 60 60 59 58 59 58 57 57 57 57 58 57 57 57 58 59 57 55 55 55 54 52 52 51
58 59 60 61 61 62 63 63 63 63 62 62 61 61 60 59 59 59 58 57 56 58 56 57 57 57 57 57 58 57 57 57 59 59 60 60 60 60 60 60 59 58 58 57 57 58 57 57 57 58 57 57 58 57 57 58 57 56 57 56 56 52
58 59 60 60 61 61 62 62 62 63 63 62 61 61 60 59 58 58 57 57 57 57 56 59 57 58 57 57 57 58 56 57 58 59 59 59 59 60 60 60 59 58 58 58 58 58 57 58 58 58 57 55 56 56 56 57 57 56 56 56 56 53
58 59 60 60 60 60 61 61 61 63 62 62 61 60 59 59 58 58 58 57 57 57 57 57 56 57 56 58 57 58 57 56 57 57 58 58 58 59 60 60 59 58 58 58 58 57 57 56 56 56 57 56 56 55 55 57 57 58 57 56 54 55
58 59 60 59 59 60 60 60 60 61 61 61 61 59 58 59 58 57 57 57 57 56 58 55 56 56 57 56 56 56 57 57 57 57 57 58 59 58 58 59 58 58 57 56 57 57 56 57 57 56 56 57 57 55 55 56 57 59 60 59 57 56
60 59 60 59 58 59 60 60 60 61 60 61 62 60 59 58 57 57 57 58 56 55 56 55 55 56 57 56 57 56 56 55 55 56 56 56 57 58 58 58 56 57 56 58 56 55 55 56 57 56 57 55 57 56 56 57 57 58 60 59 59 56
59 59 59 59 59 59 59 60 59 61 61 61 62 61 59 57 56 55 56 56 57 55 55 56 57 56 55 55 55 56 56 55 55 55 55 56 56 56 57 58 57 55 55 54 55 54 53 55 54 54 53 54 56 55 55 57 57 57 57 57 57 56

ECMWFFLT2_sfc_temp_036.txt.gz
Temp
71 71 71 71 71 71 73 74 74 74 74 74 73 73 73 74 74 73 73 73 72 70 70 71 71 71 73 72 73 74 74 74 73 73 73 73 73 72 72 72 71 71 71 71 69 70 72 72 73 73 73 73 72 68 67 67 67 68 68 69 69 70
71 71 71 71 71 71 72 73 71 71 72 73 74 74 72 71 73 71 73 71 69 70 69 69 71 73 71 72 72 74 74 73 73 73 72 72 72 72 72 71 71 71 70 68 68 64 66 72 73 73 73 71 67 66 66 67 67 68 68 68 69 71
71 71 71 71 71 70 70 71 70 70 72 73 73 72 70 70 68 69 69 69 69 68 69 69 70 71 71 72 72 73 73 73 73 72 72 72 72 71 71 71 71 70 67 66 63 63 64 66 70 73 71 67 66 66 66 66 67 67 67 69 68 73
71 71 70 70 70 70 70 70 70 69 69 70 70 69 68 68 69 69 69 67 67 68 68 69 74 74 72 69 70 73 73 72 72 71 70 68 70 71 71 71 70 66 65 64 63 65 65 65 65 65 65 66 66 66 66 66 67 67 67 71 68 73
71 71 70 70 70 69 69 70 70 70 70 70 69 68 67 68 68 68 67 67 67 67 66 66 66 66 66 66 66 65 66 65 65 65 66 64 64 65 64 63 64 64 63 64 64 64 65 65 65 65 65 65 66 66 66 66 67 67 67 68 70 73
70 70 70 70 69 70 70 69 69 69 69 69 68 67 67 67 67 67 66 66 66 65 66 66 65 66 65 65 65 64 64 64 64 64 65 63 63 63 63 63 64 64 63 64 64 65 66 65 65 65 65 65 65 65 66 66 67 67 67 68 71 73
69 70 70 70 70 69 68 69 68 68 68 68 67 67 66 66 66 66 66 66 66 65 65 65 66 66 66 65 65 65 64 63 63 63 65 63 63 63 62 62 62 63 63 64 64 64 65 65 65 66 65 65 65 65 65 65 66 66 67 68 72 72
69 69 69 70 69 67 67 68 69 70 68 69 68 66 65 65 65 65 65 66 66 65 65 65 66 66 65 64 64 63 62 63 63 64 64 63 63 63 63 62 62 62 64 64 65 64 65 65 64 66 65 65 65 65 65 65 65 66 67 68 70 72
69 69 68 68 67 67 68 68 68 67 67 70 65 65 65 65 65 65 65 65 66 64 65 65 65 65 65 63 62 63 62 62 63 63 63 63 63 62 62 62 61 62 62 63 63 64 64 64 64 65 65 65 65 64 65 65 65 66 66 67 68 71
69 68 68 67 67 67 68 67 66 67 68 68 64 64 65 64 64 65 64 65 65 64 64 64 64 64 65 63 62 62 62 62 63 63 62 63 63 63 63 62 61 62 63 63 64 65 64 64 64 64 64 65 64 65 65 65 65 65 66 66 68 71
68 67 67 66 66 67 68 66 66 66 67 65 64 65 64 64 64 64 64 65 65 65 64 63 64 63 62 62 62 62 62 62 62 63 62 63 63 63 63 62 62 62 62 62 63 64 64 64 64 64 65 65 64 65 65 65 66 66 66 66 67 68
67 67 66 66 66 67 67 66 66 65 65 64 65 64 63 64 65 64 64 64 64 64 64 63 63 62 62 62 62 62 62 62 63 63 64 63 64 64 64 63 63 63 63 63 63 63 64 63 63 64 64 64 65 65 65 65 65 65 65 65 65 67
66 66 65 66 66 67 66 66 65 65 65 65 65 64 63 64 63 64 64 64 64 64 64 63 62 63 64 61 62 61 61 62 63 64 64 65 64 63 63 62 62 63 63 63 63 63 63 63 63 63 64 64 64 65 65 65 65 65 65 65 65 66
66 66 66 66 66 66 66 66 66 65 65 65 64 64 64 63 64 64 64 64 64 65 63 63 63 62 62 61 61 61 61 62 63 64 64 64 62 62 62 62 62 63 64 63 62 62 62 62 62 62 62 63 64 64 64 64 64 64 64 64 64 65
67 65 67 66 66 66 66 66 66 65 65 64 64 64 63 63 63 63 64 64 64 64 63 63 63 63 62 61 61 60 61 63 64 65 64 63 62 61 62 61 62 62 61 61 62 62 61 61 62 62 62 63 63 63 63 63 64 64 64 63 64 64
66 65 66 66 66 66 66 66 66 66 65 64 64 64 63 63 63 63 64 64 64 65 63 63 63 63 62 61 61 61 62 63 65 65 64 62 62 61 61 61 62 62 61 60 61 60 61 61 61 62 62 62 62 63 62 62 63 64 63 63 63 63
65 65 66 66 66 66 66 66 66 66 65 64 64 64 64 63 63 64 64 64 64 65 63 63 63 63 62 62 61 61 61 64 65 64 63 62 61 61 61 61 60 62 62 60 61 60 61 61 61 61 62 61 62 62 62 62 62 62 63 62 62 63
65 66 66 66 66 66 66 66 66 66 66 64 64 64 64 64 64 64 64 64 64 65 64 63 63 63 62 63 62 62 62 63 64 63 62 62 61 61 61 61 60 60 60 61 60 60 60 61 61 61 60 60 60 60 61 62 63 64 62 62 62 63
66 66 66 66 66 65 66 66 66 66 65 65 65 65 65 64 63 64 64 64 65 65 64 63 63 63 63 63 62 61 62 62 63 62 62 62 61 61 61 60 60 60 60 61 61 61 61 61 61 61 60 60 60 60 61 62 61 61 62 63 65 64
65 66 66 65 65 65 65 65 65 65 65 65 65 65 65 65 64 64 64 65 65 64 65 64 63 64 64 63 62 61 61 62 63 63 62 61 61 60 60 60 60 61 61 62 61 61 61 61 61 61 60 60 61 61 62 61 61 61 62 62 62 62
65 66 65 65 65 65 64 65 65 65 65 65 65 65 64 64 64 64 64 65 65 64 64 64 64 64 63 64 62 61 61 62 62 63 62 62 62 61 61 61 60 61 61 61 61 61 61 62 61 59 59 60 60 62 63 62 61 61 61 62 63 62
65 65 66 66 65 65 66 66 66 66 65 65 65 64 63 63 63 63 63 63 64 63 64 64 64 64 64 63 61 61 62 62 62 62 62 62 62 62 61 61 61 59 59 60 59 60 60 59 57 57 57 57 59 61 61 60 61 61 61 62 61 61
65 65 65 66 66 65 65 66 67 65 66 64 65 65 63 63 64 63 62 63 63 63 64 64 64 64 63 62 62 61 61 61 62 62 62 62 62 60 60 61 60 60 59 59 60 60 59 58 57 57 57 57 53 55 59 59 61 60 61 61 62 62
65 65 65 66 66 65 65 65 65 65 66 66 64 64 62 62 62 62 62 64 64 63 64 64 64 63 63 62 61 61 61 61 62 63 63 62 62 60 59 59 59 61 61 59 58 59 60 59 59 61 57 54 53 54 53 56 56 59 60 61 62 61
65 65 65 65 65 64 65 63 63 64 64 63 63 61 61 59 61 62 63 63 64 64 64 64 64 63 63 61 61 61 61 61 62 63 63 62 62 61 60 61 61 61 61 60 57 57 60 60 59 59 59 55 54 55 51 56 55 57 58 60 61 63
65 65 65 65 64 65 65 64 62 62 62 60 59 60 59 60 60 62 62 63 64 64 64 64 64 64 63 62 61 61 61 61 62 63 63 62 62 61 60 60 61 61 60 61 61 58 59 59 59 59 58 58 57 56 55 56 54 53 59 59 60 62
65 65 65 65 64 65 64 64 63 63 63 61 59 57 58 58 61 59 61 62 63 63 64 64 63 63 62 62 61 61 61 61 62 62 63 62 61 61 61 61 61 60 60 60 60 59 59 58 59 59 59 59 60 57 61 58 53 54 54 57 58 58
65 65 65 64 64 65 64 63 62 62 62 61 61 60 59 59 59 60 60 61 62 62 63 63 62 62 61 62 61 61 61 61 61 62 63 62 61 61 61 61 61 60 60 61 61 61 59 59 61 59 58 58 58 58 58 55 59 59 57 53 54 58
64 64 64 64 64 64 64 62 62 62 61 61 62 60 60 61 59 60 59 59 61 61 61 61 61 61 61 61 62 61 61 61 61 62 63 61 61 61 61 61 60 59 59 59 60 61 60 60 59 58 57 57 58 58 57 57 56 56 55 54 53 55
62 63 63 64 64 63 63 63 62 61 61 60 60 59 59 58 58 58 58 57 58 59 58 59 60 61 61 61 61 61 61 61 62 63 63 62 61 61 61 61 60 60 59 59 59 60 60 60 60 58 59 58 57 57 58 59 56 57 57 57 55 54
61 62 63 63 64 62 62 62 62 63 62 60 60 60 59 58 57 58 58 56 57 56 57 57 59 60 61 61 60 61 61 61 61 63 63 61 61 61 61 60 60 60 60 59 59 59 59 59 60 59 59 59 60 61 59 57 57 58 56 54 54 54
60 60 61 62 63 63 63 63 63 63 62 61 61 60 60 59 58 59 58 57 56 57 56 56 56 57 58 59 61 60 60 60 61 62 61 61 61 61 61 60 59 60 59 59 59 59 59 59 59 59 59 60 60 60 58 60 60 59 59 58 58 55
58 58 59 60 61 62 62 63 63 63 62 62 62 61 61 60 59 59 58 57 58 57 56 58 57 57 57 57 58 58 58 59 60 60 60 60 60 61 60 60 60 59 59 59 59 59 59 59 60 60 60 58 59 59 58 59 59 59 58 59 58 55
57 58 59 59 61 62 62 63 63 64 63 63 62 62 61 61 59 59 58 58 58 58 58 59 57 58 57 57 57 58 58 57 58 58 59 59 59 60 60 60 60 59 59 59 58 58 59 59 59 59 59 59 59 58 58 59 59 59 58 58 57 57
57 58 59 58 60 61 61 62 63 63 63 63 62 61 60 60 59 58 58 58 58 58 59 58 58 58 57 57 56 56 57 57 57 58 59 59 59 59 60 60 60 59 58 58 58 58 58 58 58 58 58 59 58 57 58 58 59 61 62 61 59 58
58 58 59 59 59 61 61 62 62 62 62 62 61 60 59 59 58 59 58 59 58 58 58 57 56 57 57 57 57 57 57 56 56 57 58 58 58 59 59 60 59 59 58 59 58 58 57 58 59 58 58 57 59 58 58 58 60 60 62 62 61 59
58 58 58 58 58 59 60 61 61 61 61 61 61 60 59 58 57 57 58 58 58 57 57 58 58 57 56 55 56 57 57 56 56 56 57 57 58 58 59 59 58 57 57 57 58 58 57 58 58 58 58 58 60 58 58 58 59 59 59 59 61 60

ECMWFFLT2_sfc_temp_042.txt.gz
Temp
84 84 83 83 82 81 78 75 75 75 74 75 74 75 74 74 74 75 76 74 74 80 79 76 76 77 75 77 74 73 74 74 74 74 74 73 73 73 73 73 72 72 73 73 73 72 73 72 72 72 72 74 72 82 84 85 85 85 85 84 81 81
83 84 82 82 82 81 79 78 80 79 79 77 76 76 77 79 77 80 76 77 79 76 77 72 75 75 78 76 76 73 74 74 74 73 73 73 73 73 73 72 72 72 72 73 73 80 77 73 72 72 73 71 79 85 83 83 84 84 84 83 81 77
82 83 82 83 82 82 80 80 80 81 77 76 78 77 79 80 81 81 81 81 73 74 73 75 74 75 78 75 76 74 73 73 73 73 73 73 73 72 72 72 71 72 73 71 79 82 83 82 79 73 73 78 85 83 83 83 83 82 82 81 81 74
81 82 82 82 83 81 81 80 81 78 78 76 77 79 81 80 82 80 76 74 70 74 73 73 74 74 75 78 76 73 73 72 72 73 72 74 72 73 72 71 71 71 74 80 79 83 86 84 83 82 83 85 84 84 84 84 85 83 82 82 82 73
82 81 83 83 82 81 81 82 80 76 75 74 74 74 74 72 74 72 72 70 80 81 80 75 80 81 83 81 81 79 78 80 80 79 75 80 81 80 79 82 81 79 84 84 85 84 84 84 83 84 84 84 83 84 84 84 84 84 83 79 77 73
81 82 81 83 82 81 80 81 79 75 74 73 72 71 72 70 70 70 72 80 81 81 81 82 81 81 81 81 82 82 82 82 81 80 81 82 82 82 84 85 84 84 85 84 84 84 84 84 84 84 85 84 84 83 85 86 85 83 83 82 77 72
77 81 82 84 83 82 82 82 82 77 79 82 82 80 75 72 77 78 80 81 81 81 81 82 80 80 80 81 81 82 82 82 82 82 82 82 81 83 84 84 84 84 85 85 86 85 85 85 85 86 84 83 83 84 84 84 83 83 83 81 76 71
78 81 81 82 82 82 81 80 80 80 82 82 82 80 79 79 79 80 80 81 81 82 82 81 80 80 80 81 81 81 83 83 82 83 83 83 82 83 84 84 83 84 85 85 85 85 86 85 84 84 83 83 83 83 83 84 83 82 82 80 78 73
78 79 80 81 82 81 80 80 81 81 82 79 81 80 79 79 80 80 80 81 82 80 82 81 80 80 81 80 80 81 82 82 83 83 82 82 82 81 82 82 82 84 84 84 84 83 85 85 84 83 82 83 84 84 83 83 83 83 82 81 79 76
78 80 80 81 79 78 79 80 81 81 80 80 81 80 79 80 81 81 81 81 81 81 81 81 79 81 80 78 79 79 79 80 80 82 82 80 81 82 81 82 82 83 86 84 84 84 84 83 83 83 83 83 83 83 82 83 83 83 83 81 80 77
77 78 79 80 78 78 79 79 80 81 81 81 80 79 80 81 82 82 81 80 81 81 81 81 80 80 80 79 78 79 80 80 80 80 81 80 80 81 81 81 81 82 83 84 84 84 85 82 82 82 82 82 82 82 82 82 82 83 83 82 81 79
77 76 77 78 78 79 78 78 79 81 81 81 79 80 81 81 81 82 81 80 81 81 82 80 79 80 80 78 78 79 79 79 79 80 81 81 80 80 80 81 81 82 82 83 83 83 83 82 82 83 82 82 83 82 83 82 82 83 82 82 82 81
75 74 75 75 78 78 78 79 80 81 81 79 79 80 82 82 82 81 81 81 80 81 81 80 79 79 80 80 79 77 78 78 79 80 79 78 79 79 80 80 79 81 82 82 81 81 82 81 80 80 81 80 81 81 82 82 82 82 81 81 81 81
71 72 73 74 75 76 76 78 79 81 80 79 80 81 81 82 81 82 81 80 80 82 82 81 81 79 80 79 78 78 78 78 79 78 78 77 79 80 80 79 80 81 79 81 79 78 77 76 78 78 77 78 79 79 80 80 79 79 79 79 79 79
71 71 72 72 75 76 75 78 79 80 79 79 81 82 82 81 82 82 82 81 80 81 82 82 81 80 79 80 79 79 78 79 78 78 80 79 79 80 80 79 82 80 79 79 79 76 76 75 75 76 76 78 79 80 79 78 78 78 78 78 78 77
70 69 70 71 73 73 75 76 78 78 79 79 81 81 81 81 82 83 81 80 80 80 81 81 81 80 79 80 80 79 79 78 78 79 80 78 79 79 79 79 80 80 78 78 77 74 75 74 75 75 76 77 78 78 78 77 77 78 78 75 76 78
68 69 69 70 72 72 72 74 76 78 79 79 80 81 83 82 82 81 81 81 80 80 80 80 80 80 79 79 80 79 79 78 78 79 78 78 79 80 78 77 78 79 78 75 75 74 74 74 74 73 75 76 77 76 75 74 75 74 74 70 75 75
67 69 69 69 71 71 71 72 76 78 78 80 81 82 83 83 81 81 81 81 80 80 80 80 80 79 80 80 80 80 79 77 78 77 78 78 78 80 79 77 75 77 77 75 75 74 73 75 75 75 75 75 74 72 71 73 67 67 69 75 74 74
68 69 69 69 69 70 70 73 76 77 77 78 79 80 81 81 81 80 80 80 80 79 80 80 79 79 78 79 79 79 78 77 78 77 77 78 78 78 77 76 75 74 75 77 76 75 75 75 75 75 74 74 76 76 74 71 72 75 75 75 76 75
68 69 70 69 69 68 69 68 72 73 74 75 77 76 78 81 80 81 81 81 81 79 80 79 79 79 78 79 79 78 76 76 76 77 77 77 77 77 75 74 74 74 73 75 76 76 76 74 73 72 71 74 75 75 76 75 75 75 75 75 76 76
67 69 68 69 71 69 66 66 70 71 72 75 76 76 78 80 79 80 81 83 81 80 80 79 79 79 78 78 79 77 75 75 76 77 77 76 77 76 76 76 75 74 73 72 73 75 75 76 70 69 71 71 71 73 73 73 73 74 74 75 76 76
70 70 71 71 72 70 68 67 69 72 75 75 75 75 76 77 78 79 79 80 80 80 79 79 79 78 77 78 77 77 75 75 76 76 77 78 77 76 76 76 75 74 76 73 72 74 76 74 70 70 69 67 69 71 70 70 72 71 74 75 74 75
71 71 73 73 73 69 68 69 70 74 75 75 77 76 77 76 77 78 78 79 79 78 78 80 79 79 78 78 77 77 75 75 75 76 75 76 76 74 76 75 75 74 73 75 75 76 75 77 70 71 74 68 64 62 64 66 71 72 73 75 77 79
72 73 74 74 73 73 71 70 73 72 73 73 69 68 67 74 76 78 77 79 79 78 78 80 80 80 80 78 76 76 74 73 74 76 76 75 76 75 75 75 75 75 75 72 74 74 77 75 77 75 68 69 65 68 62 63 67 71 76 75 78 78
73 73 73 73 73 72 69 69 70 69 68 67 68 67 68 72 74 75 76 76 77 78 78 79 79 80 79 77 77 77 75 74 74 75 76 77 76 76 77 77 76 75 75 74 73 73 74 76 76 75 68 69 67 62 63 66 67 69 74 74 76 78
74 71 70 72 74 73 70 69 67 65 63 64 65 65 69 70 73 74 76 77 78 79 78 78 80 79 81 78 76 76 76 76 74 74 76 78 78 78 77 77 77 77 75 76 75 73 72 75 75 75 73 73 68 65 67 70 70 61 71 73 74 77
73 72 72 72 74 73 68 68 67 67 67 67 66 69 72 74 75 76 77 75 76 76 79 77 78 80 79 79 78 77 77 77 77 76 76 77 77 77 79 80 79 78 77 77 76 74 73 73 74 74 76 75 75 74 77 71 69 70 63 68 72 72
73 73 74 74 74 73 70 67 66 66 66 66 69 70 73 73 76 76 75 75 75 76 78 78 77 78 78 78 78 77 77 77 77 77 76 77 77 79 79 80 78 78 77 77 76 74 73 75 73 73 75 75 75 76 78 76 77 68 70 65 66 72
72 74 74 74 72 71 70 68 67 67 65 66 70 74 75 76 75 74 73 74 75 77 77 77 78 77 77 78 78 78 77 77 76 76 78 80 78 79 78 77 76 76 76 77 76 75 74 75 75 74 73 73 76 76 76 76 76 76 73 68 67 67
72 72 73 73 72 71 70 68 65 63 66 65 72 73 74 73 73 73 73 73 74 75 76 75 75 77 76 78 78 78 78 77 76 76 77 78 78 77 76 77 76 76 76 75 77 74 73 75 74 75 77 75 74 75 75 75 74 74 74 73 68 69
72 73 73 73 72 71 68 68 66 67 66 68 72 73 73 72 73 73 73 73 73 74 74 74 73 74 75 77 76 77 77 77 77 76 77 77 77 78 77 77 77 76 76 75 76 76 75 70 68 68 76 76 75 76 74 72 73 74 73 70 70 69
71 72 72 72 71 71 70 69 69 67 65 68 73 74 73 72 74 74 73 72 73 73 73 73 73 74 74 75 74 74 76 77 77 76 76 76 77 78 77 78 77 76 76 76 76 76 75 70 67 67 72 76 76 76 76 76 74 69 65 71 72 71
70 71 71 70 68 68 69 68 67 66 66 69 74 75 75 74 75 75 75 74 73 73 73 73 74 74 73 73 74 74 74 75 75 76 76 77 76 77 77 76 77 76 77 76 76 76 76 75 74 73 74 77 78 78 76 74 75 71 71 74 74 71
67 66 68 67 66 66 66 66 66 66 66 72 75 76 77 77 77 77 77 76 75 76 75 74 75 76 76 76 76 76 76 76 76 76 76 76 76 76 76 77 76 76 76 76 77 75 76 75 75 75 75 75 76 77 77 79 78 76 74 74 74 72
64 63 66 66 65 66 68 67 66 66 66 74 75 77 77 76 76 76 77 76 76 77 76 76 76 76 77 76 76 76 76 76 76 75 75 75 75 75 75 77 77 76 77 77 77 75 76 75 74 75 75 75 74 76 77 80 80 79 80 76 75 74
66 66 67 68 68 68 68 67 66 67 69 75 76 77 76 74 74 75 76 76 76 76 77 77 77 76 75 76 75 75 75 76 76 76 76 76 76 75 75 75 77 76 76 79 75 74 75 75 74 74 74 75 76 78 78 80 80 79 80 77 77 76
66 68 69 69 69 67 67 65 66 69 70 75 76 76 74 73 75 76 77 77 77 77 77 77 75 75 74 75 75 76 76 76 75 75 76 76 76 77 75 76 77 76 76 77 76 76 76 76 75 75 75 74 76 78 78 79 80 79 79 79 79 78

ECMWFFLT2_sfc_temp_045.txt.gz
Temp
84 84 83 82 81 80 78 75 75 75 75 75 74 75 75 74 75 75 76 75 75 79 79 78 77 77 75 77 74 74 75 74 74 74 74 74 73 74 74 74 74 74 73 73 73 73 72 72 72 72 74 73 73 79 86 86 86 84 83 82 80 79
84 84 82 82 82 80 78 78 80 78 79 77 76 75 77 79 78 79 75 76 77 77 78 79 77 77 77 76 76 74 75 74 75 74 74 73 73 73 73 73 73 74 73 73 72 78 76 73 72 73 73 73 77 86 85 86 86 85 83 81 79 76
80 81 80 83 82 81 80 81 81 81 80 78 79 79 81 81 80 80 79 77 73 75 77 78 75 77 75 75 76 75 74 74 74 74 73 73 74 73 73 72 73 74 73 72 78 82 81 81 80 73 74 77 84 85 85 84 84 84 82 81 79 74
76 74 74 81 82 81 81 81 81 81 79 79 80 81 82 82 77 76 74 74 74 76 76 76 76 75 76 76 76 74 74 74 74 74 73 75 73 74 73 72 72 73 74 78 78 78 83 84 83 82 81 85 85 85 85 85 86 83 82 82 81 73
76 72 74 80 81 81 80 81 82 81 81 81 80 81 80 74 73 74 75 75 77 76 73 74 75 76 77 79 79 78 76 77 78 77 74 79 79 80 77 81 78 76 81 78 78 76 77 80 84 84 85 86 85 85 86 84 83 84 82 78 76 73
75 76 76 81 82 80 80 81 79 78 81 80 80 79 75 71 71 73 75 75 73 73 73 73 74 76 80 80 81 81 81 81 80 79 79 81 81 80 81 83 82 81 80 78 76 76 77 79 81 85 86 85 85 85 86 86 83 82 79 78 75 73
79 79 81 82 78 78 80 79 81 81 81 80 79 78 78 76 76 77 75 72 70 70 74 77 76 77 79 82 83 83 82 83 81 82 82 82 81 81 82 83 83 82 78 77 73 77 80 79 81 85 85 85 85 86 85 84 84 82 79 77 75 72
81 82 81 81 74 75 73 78 79 79 81 77 76 75 75 76 76 74 72 72 70 71 75 77 79 82 83 84 83 83 83 84 84 82 84 82 81 81 82 82 82 83 80 78 72 71 74 83 82 84 85 85 85 85 85 84 84 81 79 76 76 73
81 81 82 80 78 74 71 76 78 77 77 75 73 72 73 75 75 73 71 72 71 70 78 79 81 82 84 83 83 83 84 84 84 85 83 84 84 83 83 84 83 85 83 81 77 77 80 85 82 84 83 84 85 85 84 83 80 80 79 77 77 75
80 80 80 79 75 73 69 74 75 75 75 74 71 71 73 72 72 72 71 72 71 75 78 82 82 84 83 81 82 82 82 83 84 84 83 82 84 83 84 84 84 83 86 84 78 80 82 75 77 84 84 84 84 85 83 84 77 79 79 77 76 75
78 75 76 75 75 73 70 71 73 74 75 73 71 71 72 72 71 73 75 75 80 80 82 83 83 82 82 81 81 81 81 83 83 83 83 82 83 83 83 83 81 83 82 80 79 78 82 74 76 83 82 82 83 84 84 82 76 79 80 77 77 77
74 74 74 74 75 71 72 72 74 76 73 73 71 71 71 71 72 73 77 78 81 82 84 83 82 82 82 81 81 82 82 82 81 82 83 82 82 82 82 83 83 83 76 71 78 79 72 76 72 78 82 84 84 83 82 81 75 75 77 78 78 79
73 73 72 71 68 71 74 78 78 76 79 73 73 74 78 81 75 74 76 80 82 83 82 82 80 81 82 82 81 80 81 81 81 81 81 81 81 81 81 81 81 81 77 76 78 78 75 71 70 73 77 75 80 78 74 74 75 73 74 76 78 80
72 72 71 70 70 73 75 78 78 74 76 78 81 77 75 78 76 78 78 81 82 84 83 82 82 81 81 82 80 80 80 81 82 80 80 80 80 81 81 81 81 80 77 73 79 78 72 70 69 73 79 79 73 75 76 69 72 72 74 71 71 71
72 71 71 71 71 71 75 79 76 74 75 77 81 82 79 75 76 74 80 77 82 82 83 83 82 81 81 82 80 80 80 82 81 81 81 81 80 81 81 80 79 74 68 69 75 78 76 71 73 74 75 75 71 75 71 73 73 71 72 73 69 72
72 72 71 71 72 72 74 74 75 73 75 76 79 78 81 80 83 82 77 81 81 82 82 82 82 82 79 81 82 81 81 81 80 81 81 80 81 80 77 77 73 71 72 72 75 75 77 73 73 73 75 71 70 69 70 70 70 70 72 74 70 72
71 70 71 72 71 72 71 72 72 73 75 74 80 77 76 79 83 81 78 81 81 81 83 82 82 82 80 81 82 81 82 80 80 81 79 79 80 80 76 75 74 70 71 72 72 76 74 74 74 75 75 70 70 68 69 68 71 73 75 72 72 73
73 72 71 71 70 71 71 71 68 74 74 74 80 79 79 82 83 78 82 82 81 81 81 82 82 81 80 82 82 82 81 80 80 79 79 79 79 79 78 74 73 72 70 72 73 75 72 73 75 75 75 71 69 70 71 72 73 74 75 75 72 73
73 72 72 72 71 70 71 70 70 73 71 73 73 78 79 82 75 78 81 82 82 81 82 81 81 81 80 81 81 80 80 79 80 79 79 79 79 78 77 77 73 74 76 77 77 76 77 75 74 75 75 72 74 73 75 75 75 74 73 71 72 73
73 73 72 71 70 69 69 68 68 67 69 71 72 75 80 80 76 74 83 82 81 81 83 81 81 81 80 79 80 79 78 79 79 79 77 77 77 77 74 76 76 76 76 77 78 78 76 75 74 74 71 70 72 73 75 73 72 74 73 73 76 76
73 72 71 71 69 68 67 67 67 68 68 74 76 76 77 79 75 82 83 80 79 81 81 81 81 81 78 77 79 79 78 78 79 79 78 77 78 76 75 76 76 76 76 74 75 76 75 76 73 70 72 71 69 72 73 73 71 71 70 70 77 77
72 72 72 71 69 69 70 69 68 69 72 71 77 75 71 71 78 79 76 79 77 78 81 79 80 80 79 80 78 77 77 77 78 79 78 79 78 75 75 77 76 75 77 75 74 76 75 74 70 69 67 67 69 72 73 75 75 76 76 77 77 77
73 72 70 71 71 70 71 72 71 70 75 75 76 73 73 70 68 71 72 74 77 78 80 80 79 79 78 79 78 77 77 78 78 79 77 76 76 76 76 76 76 75 74 76 76 76 73 74 69 71 72 69 65 65 67 70 73 75 76 76 75 77
74 73 72 72 71 72 72 71 70 70 68 68 66 68 67 67 68 71 67 78 79 79 79 78 80 77 80 80 78 77 77 77 77 78 77 75 75 76 76 76 76 76 75 73 74 72 74 72 71 71 65 68 67 67 62 64 68 71 76 75 76 77
73 73 74 73 73 73 72 69 70 68 67 66 66 68 68 70 70 68 73 75 79 79 80 80 80 79 80 79 78 77 76 76 77 77 78 77 76 77 78 78 78 76 74 74 72 71 72 73 70 71 70 67 64 64 65 66 68 68 74 72 78 78
73 74 73 73 73 71 69 67 66 65 63 64 65 67 67 69 71 70 73 77 76 80 78 79 80 80 76 77 77 78 76 77 77 77 78 78 78 78 78 79 79 78 76 73 71 70 68 71 68 69 72 70 68 66 65 67 69 61 70 74 76 79
69 73 74 74 72 70 68 68 68 68 68 68 68 69 71 70 72 73 75 75 77 76 80 79 79 81 80 80 75 76 77 78 79 78 78 77 78 77 80 81 80 79 78 76 76 71 69 71 69 71 73 70 70 73 74 69 65 66 62 68 72 73
69 70 74 73 72 71 70 69 68 70 70 70 70 70 71 70 69 66 66 70 73 78 80 80 79 80 80 79 79 78 77 77 77 79 78 79 79 78 79 80 78 78 78 78 75 74 71 70 72 70 71 71 73 74 73 72 71 69 66 61 64 72
69 71 71 73 71 72 72 70 68 69 67 69 71 70 69 69 67 66 66 67 73 79 79 79 80 80 79 78 77 76 75 76 76 78 79 81 80 80 78 73 74 71 76 77 76 71 72 72 73 69 72 72 73 72 68 73 72 70 68 64 64 67
67 69 70 73 75 71 70 69 67 68 67 68 68 69 69 67 66 68 66 68 75 76 78 77 78 79 79 80 79 79 79 79 78 80 80 81 80 79 79 77 76 76 73 74 73 70 70 69 71 70 75 73 70 71 71 69 69 70 70 68 66 67
64 67 67 68 70 67 67 69 68 68 68 68 67 67 64 64 65 66 66 72 74 75 76 77 77 77 78 79 79 79 78 77 79 79 79 81 79 80 78 75 77 77 72 72 71 70 71 72 73 73 72 72 73 70 71 68 68 70 68 70 68 68
66 68 68 69 67 67 68 69 69 69 68 68 67 66 64 64 67 69 72 73 74 75 75 76 76 76 76 78 78 78 79 79 78 78 78 79 79 80 79 79 77 77 72 71 72 72 71 71 73 74 72 72 72 72 70 71 69 70 69 67 69 70
66 69 69 68 68 68 67 66 67 67 67 67 68 67 66 67 70 70 74 73 74 74 75 74 75 75 75 76 77 76 77 77 78 78 78 78 79 79 79 78 78 77 77 76 73 71 70 71 72 72 73 74 73 73 72 75 72 70 73 71 70 71
69 70 70 68 68 69 68 67 67 66 67 67 68 68 66 69 73 75 76 74 74 74 74 74 74 74 75 77 77 78 77 78 78 78 78 77 78 79 78 79 78 77 76 76 75 71 69 71 71 72 72 72 72 73 73 74 74 74 73 71 68 71
70 71 71 68 69 69 70 68 68 68 67 69 69 69 68 70 73 76 76 75 75 76 76 76 76 77 77 76 77 78 78 77 77 77 78 77 78 78 77 78 78 77 76 76 73 73 70 69 70 72 71 72 71 70 75 75 74 74 75 74 74 74
71 71 71 70 67 69 70 70 71 70 69 69 69 70 70 73 77 77 76 76 76 77 78 78 78 78 77 78 77 77 78 77 78 77 77 78 77 78 77 76 77 76 76 78 75 74 73 72 71 72 70 72 71 72 74 75 75 75 76 74 77 76
72 72 71 71 70 71 72 71 71 71 72 70 69 68 68 71 75 76 77 77 77 78 78 78 77 77 76 77 77 77 77 77 76 77 77 77 77 77 77 77 76 75 76 77 76 76 74 72 73 72 72 71 72 74 75 76 76 75 76 76 78 77

ECMWFFLT2_sfc_temp_048.txt.gz
Temp
79 79 78 78 77 76 75 75 75 75 75 75 74 75 75 75 75 75 75 74 74 74 75 74 75 75 75 75 74 75 75 74 74 74 74 74 74 74 75 74 74 73 73 73 72 72 72 72 73 73 73 74 74 73 76 78 77 76 75 74 73 73
79 79 79 78 77 76 75 76 75 75 75 75 75 75 75 76 76 75 75 75 74 75 75 75 75 76 74 75 75 74 75 74 74 74 74 74 74 74 74 74 74 74 73 72 73 73 72 73 73 73 73 73 73 75 79 78 77 76 75 73 72 72
80 79 79 79 78 76 76 76 76 76 75 75 75 75 75 76 77 77 76 76 74 75 75 74 74 75 74 75 74 75 74 74 74 74 74 74 73 73 73 74 74 74 73 72 72 74 74 74 74 75 74 73 73 77 78 78 77 75 74 73 72 74
78 78 78 78 78 77 77 77 77 76 76 75 75 77 77 78 77 77 76 74 74 75 74 74 76 76 75 74 74 74 75 74 74 74 74 73 73 73 73 74 74 74 73 73 74 75 76 76 75 74 74 75 77 78 78 77 77 75 74 75 74 74
78 78 79 78 77 77 77 77 77 77 76 75 75 73 73 74 75 75 74 74 75 75 74 74 73 73 74 74 74 74 73 73 73 73 73 73 72 74 73 74 73 73 73 74 74 74 76 77 76 77 76 77 78 78 78 77 77 75 73 72 72 73
77 77 78 78 78 78 77 77 77 76 74 70 69 71 72 73 73 74 75 75 74 73 73 73 73 73 74 74 74 73 73 74 73 74 73 74 74 74 73 76 75 74 74 74 74 74 75 74 75 76 77 78 78 77 78 77 76 74 73 72 72 73
76 78 79 80 79 77 75 76 76 75 71 69 69 70 70 72 73 74 75 74 72 71 71 72 72 73 74 75 74 74 74 74 74 74 74 75 75 75 75 76 75 75 75 76 75 75 75 76 75 75 74 78 76 77 77 76 75 74 72 71 72 73
77 76 76 78 76 74 74 75 74 72 71 69 69 69 70 71 73 73 73 73 72 71 72 72 73 73 75 76 76 76 76 76 76 76 75 76 76 75 76 76 76 78 77 76 76 75 74 76 71 71 69 69 69 73 75 76 74 74 72 71 72 72
77 75 70 70 74 74 72 72 72 69 70 70 68 69 71 72 73 73 73 73 72 71 73 73 73 74 75 75 76 76 76 76 76 77 76 75 76 75 75 75 75 76 75 73 70 71 72 73 69 70 70 70 69 70 73 75 74 74 73 72 71 72
73 71 71 70 73 72 69 69 70 70 69 70 68 69 71 72 73 73 72 74 72 71 72 74 73 74 74 75 76 76 75 76 75 76 76 75 75 75 74 75 74 75 75 73 70 70 70 70 70 70 72 69 69 70 72 74 74 72 73 72 71 71
70 71 70 69 69 70 71 70 72 74 72 71 70 70 72 73 74 73 72 73 71 71 72 75 75 75 76 76 76 75 75 76 76 77 77 77 77 76 76 75 74 72 70 72 69 69 70 70 70 71 69 68 67 69 71 72 70 73 73 72 71 71
68 70 70 69 69 69 70 72 73 73 72 72 72 71 72 72 72 73 72 71 70 70 71 73 75 77 76 75 75 75 75 75 74 77 77 77 76 77 76 77 76 75 73 71 69 70 71 68 67 70 71 69 69 68 69 71 69 68 69 72 72 71
69 71 70 70 69 70 71 71 70 71 71 71 71 72 71 71 72 73 72 71 70 71 70 73 75 77 77 76 75 75 75 75 76 76 77 77 77 76 75 74 73 74 73 73 70 70 71 68 68 70 71 70 70 69 70 69 67 67 67 67 70 72
70 71 70 70 70 71 71 70 70 71 70 71 72 71 70 70 71 72 72 72 71 70 71 73 77 76 76 76 75 75 75 75 75 76 75 76 75 76 74 74 73 72 73 72 71 71 70 68 67 67 69 69 66 67 68 68 67 67 67 68 68 69
71 71 71 70 71 71 72 70 70 70 69 71 71 71 71 70 69 71 73 71 72 70 72 75 77 76 76 76 75 75 75 75 75 75 75 75 75 75 74 73 72 72 71 69 70 71 70 68 66 68 68 69 68 69 68 68 68 67 67 67 69 69
72 71 71 71 71 72 71 70 71 71 69 71 70 70 69 68 71 72 73 72 74 71 74 77 77 77 74 75 75 75 75 76 76 75 75 74 75 74 72 71 71 71 69 70 71 70 70 69 68 68 67 68 68 68 68 68 67 66 66 67 69 69
71 71 72 71 71 71 70 71 71 72 71 69 68 68 69 69 70 71 74 74 75 76 77 77 77 76 73 75 76 76 75 76 76 75 74 74 74 73 71 71 70 71 71 69 71 71 70 70 69 68 68 68 68 68 68 68 67 67 68 68 69 68
72 72 72 71 71 70 71 71 71 72 72 69 69 68 69 70 69 71 74 74 73 73 75 77 76 74 72 75 77 76 75 76 75 74 74 74 73 72 71 70 68 70 71 70 70 70 69 69 70 68 68 68 68 68 68 69 69 70 69 68 69 68
72 72 72 72 70 71 70 70 71 71 70 69 67 68 68 68 68 69 70 72 74 74 72 74 74 74 72 74 75 74 74 75 74 74 74 74 72 72 70 70 69 68 71 70 70 70 70 70 69 69 69 67 69 69 69 68 69 68 68 68 69 70
72 72 72 70 70 69 70 69 68 69 68 68 69 68 67 68 68 68 69 69 73 74 74 74 74 74 74 74 73 72 73 75 74 74 73 72 72 71 70 70 69 69 69 70 71 71 71 70 68 68 67 67 68 69 70 68 69 69 68 68 69 68
72 72 71 70 70 69 68 68 67 68 67 70 69 68 67 67 68 67 69 70 69 69 70 73 72 74 74 72 73 73 74 74 74 73 73 73 72 72 72 70 69 70 69 69 69 70 71 71 67 64 65 66 66 68 69 69 68 67 68 67 67 67
72 71 71 71 71 70 71 70 68 69 70 71 69 67 65 66 66 68 68 69 68 69 69 67 71 73 73 73 72 73 73 73 73 73 73 74 72 72 72 70 70 69 71 69 69 71 71 70 66 63 62 62 63 66 67 68 69 70 69 69 68 69
72 71 71 71 71 70 71 71 71 69 70 66 67 68 69 68 68 67 67 68 69 69 69 69 71 74 73 74 73 73 73 72 73 73 72 71 70 71 71 70 71 69 68 68 69 71 70 70 65 66 66 63 59 58 60 63 65 67 70 69 68 70
72 72 71 71 71 72 72 70 70 69 69 67 65 67 67 67 68 68 67 69 69 69 69 69 73 76 76 74 72 72 73 71 71 72 72 71 70 71 70 70 71 71 70 66 68 68 71 69 68 67 60 62 61 61 56 59 62 65 68 69 70 70
71 69 69 68 70 69 69 67 67 67 67 66 67 67 66 66 68 68 68 68 67 69 69 69 72 74 74 73 73 72 73 73 71 71 73 72 72 72 73 72 72 70 70 68 66 66 68 70 68 67 65 62 60 59 59 61 63 61 65 67 70 71
70 69 70 70 68 66 66 65 64 64 64 64 64 65 64 65 66 67 68 69 69 70 71 71 75 74 75 73 73 72 73 74 71 71 73 72 73 73 73 73 73 71 70 69 68 67 66 67 67 68 68 66 65 61 60 63 62 56 64 67 69 74
68 69 69 68 68 67 65 65 66 66 65 64 64 66 69 69 69 70 71 69 71 71 71 72 72 75 75 75 74 73 73 73 73 72 74 73 71 72 72 75 72 72 71 70 69 66 66 65 65 67 69 69 68 68 68 64 59 61 58 62 66 67
70 69 69 69 68 66 66 65 66 66 64 64 65 67 69 69 69 69 69 70 71 72 74 74 73 75 75 75 73 73 73 72 73 75 74 73 72 73 73 74 72 71 70 68 67 66 65 65 64 63 68 67 67 69 69 69 68 64 61 58 60 66
69 69 69 69 68 67 66 66 65 63 62 64 66 68 69 69 68 68 68 67 69 73 74 74 73 74 73 74 73 73 74 74 73 74 75 75 73 75 73 70 71 68 68 66 66 66 65 65 65 65 65 66 68 67 67 68 67 66 62 60 60 62
68 68 69 68 67 67 67 66 64 63 63 64 65 68 69 68 67 67 66 66 68 68 71 73 74 75 74 73 74 74 74 74 73 74 73 74 73 73 72 71 71 69 68 68 67 66 66 66 67 67 67 66 65 64 64 64 65 64 65 65 60 62
66 66 67 66 67 66 66 67 65 64 64 65 66 67 67 67 66 66 66 66 66 68 71 73 74 74 74 75 74 74 73 74 74 73 73 74 72 73 71 71 71 70 69 68 68 68 68 68 68 67 67 68 65 64 62 62 63 65 63 61 61 62
65 66 66 67 67 66 67 66 66 65 66 66 66 66 66 66 66 66 66 66 67 69 71 72 72 73 72 74 73 73 73 73 72 72 73 73 72 73 72 72 70 70 70 70 70 70 69 68 69 68 69 68 67 66 65 64 67 66 65 62 64 62
64 66 67 68 67 66 66 67 67 67 67 67 66 66 66 66 67 66 66 67 68 68 70 70 70 71 72 72 72 72 72 71 72 72 73 74 71 74 72 70 70 70 69 69 69 70 68 68 69 67 66 68 68 68 67 68 68 68 68 66 64 63
65 66 66 67 67 66 67 67 67 67 68 67 66 66 65 67 67 67 67 68 69 69 70 70 70 70 72 73 72 74 74 73 73 73 73 73 73 74 73 72 71 70 70 68 69 69 69 69 69 68 68 67 68 68 67 69 68 68 67 66 64 65
66 67 67 67 67 67 67 67 68 68 67 67 66 66 66 67 67 67 68 68 69 71 70 71 72 72 73 72 73 73 73 73 73 73 73 72 74 73 72 72 72 71 68 69 69 69 68 69 69 69 68 68 67 67 69 70 69 69 70 69 67 66
68 68 67 67 67 67 67 68 68 67 67 67 66 66 66 66 67 68 67 68 69 71 72 71 72 72 72 73 72 73 73 73 73 73 72 73 73 73 72 70 69 69 69 72 69 69 68 69 68 69 68 68 68 67 68 70 70 69 70 70 68 66
69 69 68 68 68 68 68 68 67 68 68 67 67 66 66 66 66 67 67 67 69 72 73 73 73 73 72 72 72 72 72 72 72 72 72 72 73 73 72 71 70 69 69 70 69 69 68 68 68 68 67 68 67 68 68 70 70 70 70 68 68 67